Regional Weather Roundup
Issued by NWS

Home | Current Version | Previous Version | Text Only | Print | Product List | Glossary Off
Versions: 1 2 3 4 5 6 7 8 9 10 11 12 13 14 15 16 17 18 19 20 21 22 23 24 25 26 27 28 29 30 31 32 33 34 35 36 37 38 39 40 41 42 43 44 45 46 47 48 49 50

000
ASUS43 KBIS 211159
RWRND

NORTH DAKOTA REGIONAL WEATHER ROUNDUP
NATIONAL WEATHER SERVICE BISMARCK ND
600 AM CST SUN DEC 21 2014

NOTE: "FAIR" INDICATES FEW OR NO CLOUDS BELOW 12,000 FEET WITH NO
SIGNIFICANT WEATHER AND/OR OBSTRUCTIONS TO VISIBILITY.


NDZ001>003-009>011-017-211300-
NORTHWEST NORTH DAKOTA

CITY           SKY/WX    TMP DP  RH WIND       PRES   REMARKS
WILLISTON      CLEAR     17  14  88 CALM      29.54F
6HR MIN TEMP:  14; 6HR MAX TEMP:  22;

MINOT          CLEAR     19  15  84 SE3       29.58F
$$

NDZ018>021-031>035-040>046-211300-
SOUTHWEST NORTH DAKOTA

CITY           SKY/WX    TMP DP  RH WIND       PRES   REMARKS
BISMARCK       CLOUDY    19  17  92 CALM      29.66F
6HR MIN TEMP:  11; 6HR MAX TEMP:  19;

GARRISON         N/A     19  16  88 CALM      29.59F
6HR MIN TEMP:  17; 6HR MAX TEMP:  26;

HETTINGER ARPT CLEAR     22  18  85 CALM      29.58F
$$

NDZ004>008-012>016-024-026-027-054-211300-
NORTHEAST NORTH DAKOTA

CITY           SKY/WX    TMP DP  RH WIND       PRES   REMARKS
GRAND FORKS    CLOUDY    30  29  96 S18G24    29.72F WCI  18
DEVILS LAKE    CLEAR     19  10  68 S3        29.63F
$$

NDZ022-023-025-028>030-036>039-047>053-211300-
SOUTHEAST NORTH DAKOTA

CITY           SKY/WX    TMP DP  RH WIND       PRES   REMARKS
FARGO          CLOUDY    32  29  88 S12       29.77F
6HR MIN TEMP:  32; 6HR MAX TEMP:  32;

JAMESTOWN      CLEAR     21  18  88 S8        29.68F WCI  11
$$



USA.gov is the U.S. government's official web portal to all federal, state and local government web resources and services.